sat.trackr.live / text

‹ back to catalog

SVYATOBOR 1 (RS60S)

NORAD 57187 · 2023-091X

PAYLOAD ACTIVE UNKNOWN

§ Identity

Operator
Country
CIS
Launch date
2023-06-27
Launch site
VOSTO
Launch vehicle
Mass (kg)
RCS (m²)

Purposes: comms

External: N2YO · Heavens-Above · Gunter

§ Orbital elements

Epoch: 2026-05-25T04:19:48.840096Z

Period
94.35 min
Inclination
97.5101°
Eccentricity
0.0010125
Mean motion
15.26155914 rev/d
Perigee alt
480.4 km
Apogee alt
494.3 km
Semi-major
6,865.5 km
B*
3.5873e-4
RAAN
208.8763°
Arg perigee
164.7106°
Mean anomaly
195.4440°
Rev number
16,080

§ Raw data

SVYATOBOR 1 (RS60S)1 57187U 23091X   26145.18042639  .00009209  00000+0  35873-3 0  99922 57187  97.5101 208.8763 0010125 164.7106 195.4440 15.26155914160802

JSON: /api/v1/satellites/57187 · /tle

For live sub-satellite position, see the globe view (requires WebGL).

§ Visibility from observer

Set your observer location to see the next 7 days of passes ≥ 10°. The values pass through the URL so the page stays shareable.

No JS? Fill the form by hand. The geolocation button needs JavaScript.

§ Radio — SatNOGS DB

ModeDescriptionDownlinkUplink
GMSK USP Mode U - GMSK 2k4 (USP FEC) TLM 437.875 MHz
GMSK Mode U - GMSK 4k8 (USP FEC) TLM 437.875 MHz

2 transmitters · refreshed weekly from db.satnogs.org